Погода в Житомире

Хотите узнать прогноз погоды в Житомире? Тогда Вам сюда: Погода в Житомире

Поиск расширенной информации на нашем сайте:

Полезная информация:

Новости сайта



02.01.2020
Опубликован Долгосрочный прогноз погоды по городам России и ближнего зарубежья на январь 2020 года.
Карты: Прогноз на январь и февраль 2020 года, Сравнение прогнозируемой аномалии приземной температуры воздуха на январь 2020 года по разным моделям.




Погода в Житомире - сегодня

Время (UTC), дата Ветер
(°,м/с) 
Видим.   Явления Облачность Т
(°С)
Тd
(°С)
f(%) Тe
(°С)
Pmin
(гПа)
dP
(гПа)
Po
(мм)
O2
(г/м3)
Тmin Tmax R s Состояние
почвы
09 16.04.21 290 (З) 10 км    10/10 500 м 
[Sc]
+5.7 +3.8 88 +7  1011.7  0.5  739  291           
12 16.04.21 290 (З) 10 км    10/10 630 м 
[Sc]
+7.3 +3.8 78 +8  1012.1  0.6  739  289           
15 16.04.21 340 (С) 10 км    10/10 360 м кучево-дожд. 
[Cb cap]
+7.4 +4.2 80 +8  1012.6  0.5  740  289           
18 16.04.21 330 (СЗ) 10 км    10/10 630 м кучево-дожд. 
[Cb cap]
+6.5 +3.7 82 +7  1014.2  1.4  741  291    +7.7       
21 16.04.21 280 (З) 10 км    10/10 500 м кучево-дожд. 
[Cb cap]
+5.9 +3 82 +6  1014.8  0.6  741  292           
00 17.04.21 280 (З) 10 км    10/8 570 м кучево-дожд., средняя 
[Cb cap|Ac und]
+5.2 +2 80 +5  1015.3  0.4  741  293           
03 17.04.21 270 (З) 10 км    10/10 360 м кучево-дожд. 
[Cb cap]
+4.1 +2.1 87 +4  1015.7  0.3  742  294           
06 17.04.21 270 (З) 2000 м  слаб. дождь  10/8 360 м средняя 
[Frnb|As op]
+4.1 +2.9 92 +5  1016.8  742  294  +3.7    0.0     
09 17.04.21 320 (СЗ) 4000 м  слаб. ливневой дождь  10/8 570 м кучево-дожд., средняя 
[Cb cap|As op]
+6 +3.6 85 +7  1017.6  743  292           
12 17.04.21 350 (С) 10 км  {ливн. осадки, дождь}  10/9 570 м средняя 
[Sc|As op]
+8.1 +4 75 +9  1018  0.6  744  290      0.3     
15 17.04.21 тихо ()   2000 м  дождь  10/8 360 м средняя 
[Frnb|As op]
+7.4 +5.2 86 +7  1018.9  0.8  744  291           
18 17.04.21 тихо ()   2000 м  дымка{дождь}  10/10 540 м 
[Sc]
+6.8 +5.9 94 +7  1019.4  0.4  744  292    +8.4  0.4     
21 17.04.21 тихо ()   2000 м  дымка{морось}  10/10 270 м 
[St]
+6.7 +5.8 94 +7  1018.8  -0.5  744  292           
00 18.04.21 320 (СЗ) 4000 м  дымка{морось}  9/9 300 м 
[St]
+5.9 +4.5 91 +7  1018.9  744  293      0.0     
03 18.04.21 320 (СЗ) 2000 м  дымка  10/10 240 м 
[St]
+5 +4.1 94 +5  1018.5  -0.5  744  294           
06 18.04.21 290 (З) 10 км    9/5 630 м средняя 
[Sc|Ac trans]
+6.7 +3.7 81 +8  1017.9  -0.4  743  292  +4.7    0.0     
09 18.04.21 290 (З) 10 км    10/3 600 м средняя, верхняя 
[Cu Sc|Ac trans|Cs]
+11.2 +4.6 64 +11  1016.6  -0.9  743  287           
15 18.04.21 340 (С) 10 км    10/4 600 м кучево-дожд., средняя, верхняя 
[Cb cap|Ac trans|Cs]
+12.2 +6.8 70 +13  1016.1  -0.3  742  285           
18 18.04.21 060 (СВ) 10 км  {ливн. осадки}  9/6 800 м кучево-дожд., средняя, верхняя 
[Cb cap|Ac trans|Cs]
+10.6 +6.4 75 +11  1017.3  1.1  743  287    +12.2  0.0     
21 18.04.21 тихо ()   10 км    8/0 средняя, верхняя 
[Ac trans|Ci fib]
+7.6 +3.9 77 +8  1018.2  0.5  744  291           
00 19.04.21 тихо ()   4000 м  дымка  6/0 верхняя 
[Ci fib]
+4 +2.8 92 +4  1018  -0.5  743  295           
03 19.04.21 тихо ()   4000 м  дымка  5/0 средняя, верхняя 
[Ac trans|Ci fib]
+1.8 +0.7 92 +2  1018  -0.2  743  297           
06 19.04.21 010 (С) 10 км    10/0 средняя, верхняя 
[Ac trans|Ci fib]
+7.1 +3.1 76 +8  1017.5  743  291  +1.5         
09 19.04.21 060 (СВ) 10 км    8/8 1000 м 
[Cu med, cong]
+11.3 +2.3 54 +12  1016.2  -0.9  742  287           
15 19.04.21 060 (СВ) 10 км    10/6 870 м кучево-дожд., средняя 
[Cb cap|Ac und]
+12.3 +1.6 48 +12  1015.3  -0.6  742  286           
Время (UTC), дата Ветер
(°,м/с) 
Видим.   Явления Облачность Т
(°С)
Тd
(°С)
f(%) Тe
(°С)
Pmin
(гПа)
dP
(гПа)
Po
(мм)
O2
(г/м3)
Тmin Tmax R s Состояние
почвы

Для получения пояснительной информации подведите курсор к названию столбца.

ПОГОДА в Житомире - архив

Всё, что Вы хотите узнать о погоде в Житомире - удобно и подробно!

Выберите нужную дату (начиная с 1 января 2019* года) и нажмите кнопку "Найти".
Будут отображены архивные сводки погоды по пункту Житомир, начиная с указанной даты.


Отображать данные в формате CSV (для использования в таблицах Excel)


Внимание! Наш архив погоды предназначен исключительно для личного некоммерческого использования в познавательных целях. Если Вам необходимы официальные справки о состоянии погоды (для производственных, юридических, коммерческих и т.п. целей), обращайтесь в органы Росгидромета.

*Примечание: данная дата относится к архиву по метеостанциям СССР (Россия, СНГ, Балтия).
Архив по метеостанциям Зарубежной Европы и Азии (кроме Китая) хранится 10 дней, по другим регионам земного шара (Китай, Африка, Америка, Австралия, Океания) - 1 день.

Житомир - район местоположения метеостанции


Название, широта, долгота, высота метеостанции:
Житомир 50.2°ш. 28.7°д. 224 м над ур. моря [Украина]

Дополнительная информация

В oтличие oт бoльшинства пoгoдных сайтoв мы публикуем пoдрoбную метеoинфoрмацию в детальнoм прoфессиoнальнoм фoрмате.

Характеристики температуры и влажнoсти вoздуха измеряются на высoте 2 м в тени вдали oт зданий и деревьев.
Скoрoсть ветра измеряется на высoте 10 м (на урoвне рoста челoвека скoрoсть ветра ниже в 1.5-2 раза). Если метеoстанция нахoдится в гoрoде или в лесу, тo скoрoсть ветра занижена на 2-4 м/с пo сравнению с oткрытым местoм. Скoрoсть ветра над акватoриями крупных рек и oзёр, а также на вершинах хoлмoв на 2-5 м/с выше, чем в oбычных услoвиях.
Атмoсфернoе давление в разных тoчках местнoсти мoжет значительнo oтличаться oт давления на метеoстанции, в зависимoсти oт услoвий рельефа (при пoдъёме на 10 м давление пoнижается примернo на 1 мм рт.ст.).